Mount Airy, NC

6:55 AM EDT on September 20, 2019 (GMT -0400)
Mount Airy-Surry County

Weather History for KMWK - July, 2019

Change the Weather History Date:

Thursday, July 11, 2019

  Actual Average (WUND) Record (WUND)
Temperature  
Mean Temperature 80 °F -  
Max Temperature 86 °F - - (-1)
Min Temperature 73 °F - - (-1)
Cooling Degree Days 14    
Growing Degree Days 30 (Base 50)    
Moisture  
Dew Point 73 °F    
Average Humidity 86    
Maximum Humidity 91    
Minimum Humidity 72    
Precipitation  
Precipitation 0.00 in - - ()
Sea Level Pressure  
Sea Level Pressure 29.99 in    
Wind  
Wind Speed 1 mph (SSW)    
Max Wind Speed 10 mph    
Max Gust Speed 20 mph    
Visibility 10 miles    
Events Rain    
Averages and records for this station are not official NWS values.
T = Trace of Precipitation, MM = Missing Value Source: NWS Daily Summary

Daily Weather History Graph

Daily Weather History Graph

Search for Another Location

Airport or City:

Astronomy

Jul. 11, 2019 Rise Set
Actual Time 6:13 AM EDT 8:42 PM EDT
Civil Twilight 5:43 AM EDT 9:11 PM EDT
Nautical Twilight 5:06 AM EDT 9:48 PM EDT
Astronomical Twilight 4:25 AM EDT 10:29 PM EDT
Moon 3:58 PM EDT (7/11) 2:17 AM EDT (7/11)
Length of Visible Light 15h 28m
Length of Day
14h 28m
Waxing Gibbous, 74% of the Moon is Illuminated
Jul 11
Waxing Gibbous
Jul 16
Full
Jul 24
Last Quarter
Jul 31
New
Aug 7
First Quarter

Hourly Weather History & Observations

Time (EDT) Temp. Heat Index Dew Point Humidity Pressure Visibility Wind Dir Wind Speed Gust Speed Precip Events Conditions
12:20 AM 77.4 °F - 73.4 °F 88% 30.06 in 10.0 mi Calm Calm - N/A   Clear
12:40 AM 76.8 °F - 72.7 °F 87% 30.06 in 10.0 mi Calm Calm - N/A   Clear
1:00 AM 75.7 °F - 72.3 °F 89% 30.05 in 10.0 mi Calm Calm - N/A   Clear
1:35 AM 75.6 °F - 72.1 °F 89% 30.05 in 10.0 mi Calm Calm - N/A   Clear
2:00 AM 74.8 °F - 71.8 °F 90% 30.04 in 10.0 mi Calm Calm - N/A   Scattered Clouds
2:20 AM 75.6 °F - 72.5 °F 90% 30.04 in 10.0 mi Calm Calm - N/A   Clear
2:40 AM 75.6 °F - 72.3 °F 90% 30.04 in 10.0 mi Calm Calm - N/A   Clear
3:00 AM 75.2 °F - 72.1 °F 90% 30.04 in 10.0 mi Calm Calm - N/A   Scattered Clouds
3:15 AM 75.2 °F - 72.0 °F 90% 30.03 in 10.0 mi SSE 3.5 mph - N/A   Clear
3:40 AM 74.8 °F - 71.8 °F 90% 30.03 in 10.0 mi SSE 3.5 mph - N/A   Clear
4:00 AM 74.5 °F - 71.6 °F 91% 30.02 in 10.0 mi SSE 3.5 mph - N/A Rain Rain
4:15 AM 74.1 °F - 71.1 °F 90% 30.02 in 10.0 mi Calm Calm - N/A   Drizzle
4:40 AM 73.6 °F - 70.7 °F 91% 30.03 in 7.0 mi Calm Calm - N/A Rain Heavy Rain
5:00 AM 73.6 °F - 70.7 °F 91% 30.02 in 7.0 mi Calm Calm - N/A   Drizzle
5:15 AM 73.6 °F - 70.7 °F 91% 30.02 in 7.0 mi Calm Calm - N/A   Mostly Cloudy
5:35 AM 73.6 °F - 70.7 °F 91% 30.01 in 7.0 mi Calm Calm - N/A   Mostly Cloudy
6:00 AM 73.2 °F - 70.3 °F 91% 30.02 in 7.0 mi Calm Calm - N/A   Scattered Clouds
6:15 AM 73.4 °F - 70.5 °F 91% 30.01 in 7.0 mi Calm Calm - N/A   Mostly Cloudy
6:40 AM 73.4 °F - 70.7 °F 91% 30.02 in 5.0 mi Calm Calm - N/A   Scattered Clouds
7:00 AM 73.9 °F - 71.1 °F 91% 30.02 in 5.0 mi Calm Calm - N/A   Scattered Clouds
7:20 AM 74.8 °F - 72.0 °F 91% 30.02 in 7.0 mi Calm Calm - N/A   Mostly Cloudy
7:40 AM 75.9 °F - 73.0 °F 91% 30.02 in 10.0 mi Calm Calm - N/A   Mostly Cloudy
7:50 AM 76.1 °F - 73.0 °F 90% 30.02 in 10.0 mi Calm Calm - N/A   Mostly Cloudy
8:15 AM 75.6 °F - 72.7 °F 91% 30.03 in 7.0 mi Calm Calm - N/A   Overcast
8:40 AM 76.1 °F - 73.2 °F 91% 30.03 in 7.0 mi Calm Calm - N/A   Overcast
9:00 AM 77.2 °F - 74.1 °F 90% 30.03 in 10.0 mi Calm Calm - N/A   Mostly Cloudy
9:10 AM 77.4 °F - 74.3 °F 90% 30.03 in 10.0 mi Calm Calm - N/A   Mostly Cloudy
9:40 AM 78.4 °F - 74.8 °F 89% 30.03 in 10.0 mi Calm Calm - N/A   Mostly Cloudy
10:00 AM 79.0 °F - 75.0 °F 88% 30.03 in 10.0 mi SSE 3.5 mph - N/A   Mostly Cloudy
10:20 AM 80.1 °F 85.2 °F 75.4 °F 86% 30.02 in 10.0 mi SW 4.6 mph - N/A   Mostly Cloudy
10:40 AM 80.4 °F 86.0 °F 75.4 °F 85% 30.02 in 10.0 mi Calm Calm - N/A   Mostly Cloudy
11:00 AM 81.1 °F 87.4 °F 75.4 °F 83% 30.02 in 10.0 mi SSW 5.8 mph - N/A   Mostly Cloudy
11:35 AM 81.5 °F 88.3 °F 75.7 °F 83% 30.01 in 10.0 mi SW 3.5 mph - N/A   Overcast
12:00 PM 82.9 °F 91.5 °F 76.6 °F 81% 30.00 in 10.0 mi WSW 4.6 mph - N/A   Mostly Cloudy
12:15 PM 82.6 °F 90.5 °F 76.3 °F 81% 30.00 in 10.0 mi SSW 5.8 mph - N/A   Mostly Cloudy
12:40 PM 83.3 °F 92.1 °F 76.6 °F 80% 29.99 in 10.0 mi SW 3.5 mph - N/A   Scattered Clouds
1:00 PM 84.0 °F 94.4 °F 77.5 °F 81% 29.99 in 10.0 mi Calm Calm - N/A   Scattered Clouds
1:20 PM 86.0 °F 96.0 °F 76.1 °F 72% 29.97 in 10.0 mi South 6.9 mph - N/A   Scattered Clouds
1:40 PM 86.0 °F 96.4 °F 76.6 °F 73% 29.97 in 10.0 mi WSW 10.4 mph - N/A   Scattered Clouds
1:55 PM 85.6 °F 95.5 °F 76.3 °F 73% 29.97 in 10.0 mi WSW 6.9 mph - N/A   Scattered Clouds
2:20 PM 85.1 °F 95.8 °F 77.2 °F 77% 29.96 in 10.0 mi SSW 3.5 mph - N/A   Scattered Clouds
2:40 PM 84.2 °F 93.8 °F 76.8 °F 78% 29.96 in 10.0 mi West 3.5 mph - N/A   Scattered Clouds
3:00 PM 84.6 °F 94.3 °F 76.8 °F 77% 29.95 in 10.0 mi WSW 5.8 mph - N/A   Scattered Clouds
3:20 PM 84.9 °F 94.9 °F 76.6 °F 76% 29.95 in 10.0 mi SSW 4.6 mph - N/A   Scattered Clouds
3:35 PM 83.1 °F 90.4 °F 74.8 °F 76% 29.94 in 10.0 mi WSW 4.6 mph - N/A   Scattered Clouds
4:00 PM 82.6 °F 90.5 °F 76.1 °F 81% 29.93 in 10.0 mi SW 5.8 mph - N/A   Clear
4:20 PM 78.3 °F - 71.4 °F 79% 29.94 in 10.0 mi SSW 9.2 mph 19.6 mph N/A   Scattered Clouds
5:00 PM 77.4 °F - 71.6 °F 82% 29.95 in 10.0 mi SW 3.5 mph - N/A   Clear
5:20 PM 77.9 °F - 72.0 °F 82% 29.94 in 10.0 mi SSW 3.5 mph - N/A   Clear
5:40 PM 78.3 °F - 72.7 °F 83% 29.93 in 10.0 mi Calm Calm - N/A   Clear
6:00 PM 79.3 °F - 73.4 °F 82% 29.93 in 10.0 mi West 5.8 mph - N/A   Clear
6:05 PM 79.0 °F - 73.4 °F 83% 29.93 in 10.0 mi WSW 4.6 mph - N/A   Clear
6:40 PM 78.4 °F - 73.8 °F 85% 29.92 in 10.0 mi Calm Calm - N/A Rain Light Rain
7:00 PM 78.3 °F - 74.1 °F 87% 29.91 in 10.0 mi Calm Calm - N/A   Light Drizzle
7:20 PM 78.1 °F - 73.8 °F 86% 29.90 in 10.0 mi Calm Calm - N/A   Clear
7:40 PM 78.1 °F - 73.8 °F 86% 29.90 in 10.0 mi Calm Calm - N/A   Clear
8:00 PM 77.9 °F - 73.8 °F 87% 29.91 in 10.0 mi Calm Calm - N/A   Clear
8:15 PM 77.9 °F - 74.3 °F 89% 29.91 in 10.0 mi South 3.5 mph - N/A   Clear
8:35 PM 77.4 °F - 73.9 °F 89% 29.92 in 10.0 mi SSE 4.6 mph - N/A   Clear
9:00 PM 76.3 °F - 73.4 °F 91% 29.93 in 10.0 mi Calm Calm - N/A   Clear
9:20 PM 75.7 °F - 72.7 °F 90% 29.93 in 10.0 mi South 3.5 mph - N/A   Scattered Clouds
9:40 PM 75.2 °F - 72.1 °F 90% 29.94 in 10.0 mi Calm Calm - N/A   Clear
10:00 PM 74.8 °F - 71.8 °F 90% 29.95 in 10.0 mi Calm Calm - N/A   Clear
10:15 PM 74.7 °F - 71.6 °F 90% 29.95 in 10.0 mi Calm Calm - N/A   Clear
10:40 PM 74.3 °F - 71.4 °F 91% 29.95 in 10.0 mi Calm Calm - N/A   Scattered Clouds
10:55 PM 74.5 °F - 71.6 °F 91% 29.95 in 10.0 mi Calm Calm - N/A   Scattered Clouds
11:20 PM 74.3 °F - 71.4 °F 91% 29.95 in 10.0 mi Calm Calm - N/A   Scattered Clouds
11:40 PM 74.7 °F - 71.8 °F 91% 29.95 in 10.0 mi Calm Calm - N/A   Mostly Cloudy